Texico, NM

7:35 AM MDT on September 28, 2016 (GMT -0600)
Clovis Municipal

Weather History for KCVN - March, 2014

Change the Weather History Date:

Sunday, March 2, 2014

  Actual Average Record
Temperature  
Mean Temperature 16 °F -  
Max Temperature 24 °F 62 °F 80 °F (2009)
Min Temperature 8 °F 33 °F 6 °F (2002)
Degree Days  
Heating Degree Days 49    
Moisture  
Dew Point 9 °F    
Average Humidity 76    
Maximum Humidity 86    
Minimum Humidity 67    
Precipitation  
Precipitation 0.08 in - - ()
Sea Level Pressure  
Sea Level Pressure 30.14 in    
Wind  
Wind Speed 15 mph (NNE)    
Max Wind Speed 26 mph    
Max Gust Speed 30 mph    
Visibility 9 miles    
Events      
Averages and records for this station are not official NWS values.
T = Trace of Precipitation, MM = Missing Value Source: NWS Daily Summary

Daily Weather History Graph

Daily Weather History Graph

Search for Another Location

Airport or City:

Trip Planner

Search our weather history database for the weather conditions in past years. The results will help you decide how hot, cold, wet, or windy it might be!

Date:

Astronomy

Mar. 02, 2014 Rise Set
Actual Time 6:19 AM MST 5:49 PM MST
Civil Twilight 5:54 AM MST 6:14 PM MST
Nautical Twilight 5:25 AM MST 6:43 PM MST
Astronomical Twilight 4:56 AM MST 7:12 PM MST
Moon 6:57 AM MST (3/2) 7:41 PM MST (3/2)
Length of Visible Light 12h 19m
Length of Day
11h 29m
Waxing Crescent, 3% of the Moon is Illuminated
Mar 2
Waxing Crescent
Mar 8
First Quarter
Mar 16
Full
Mar 23
Last Quarter
Mar 30
New

Hourly Weather History & Observations

Time (MST) Temp. Windchill Dew Point Humidity Pressure Visibility Wind Dir Wind Speed Gust Speed Precip Events Conditions
12:15 AM 24.8 °F 11.5 °F 17.6 °F 74% 30.02 in 10.0 mi NNE 17.3 mph - N/A   Overcast
12:35 AM 24.8 °F 14.0 °F 17.6 °F 74% 30.05 in 10.0 mi NE 11.5 mph - N/A   Mostly Cloudy
12:55 AM 24.8 °F 12.9 °F 17.6 °F 74% 30.04 in 10.0 mi NNE 13.8 mph - N/A   Overcast
1:15 AM 24.8 °F 11.9 °F 17.6 °F 74% 30.06 in 10.0 mi NE 16.1 mph - N/A   Overcast
1:35 AM 24.8 °F 11.5 °F 15.8 °F 69% 30.04 in 10.0 mi NE 17.3 mph - N/A   Overcast
1:55 AM 23.0 °F 9.2 °F 15.8 °F 74% 30.03 in 10.0 mi NE 17.3 mph - N/A   Overcast
2:15 AM 21.2 °F 6.0 °F 15.8 °F 80% 30.04 in 10.0 mi NNE 19.6 mph - N/A   Mostly Cloudy
2:35 AM 21.2 °F 5.2 °F 15.8 °F 80% 30.00 in 10.0 mi NNE 21.9 mph - N/A   Overcast
2:55 AM 21.2 °F 7.3 °F 15.8 °F 80% 30.02 in 10.0 mi NNE 16.1 mph - N/A   Overcast
3:15 AM 21.2 °F 8.9 °F 15.8 °F 80% 30.06 in 8.0 mi NE 12.7 mph 17.3 mph N/A   Overcast
3:35 AM 21.2 °F 8.9 °F 15.8 °F 80% 30.06 in 9.0 mi NE 12.7 mph - N/A   Overcast
3:55 AM 19.4 °F 6.0 °F 15.8 °F 86% 30.05 in 10.0 mi NNE 13.8 mph - N/A   Mostly Cloudy
4:15 AM 19.4 °F 7.2 °F 14.0 °F 80% 30.04 in 10.0 mi NE 11.5 mph - N/A   Mostly Cloudy
4:35 AM 19.4 °F 5.0 °F 12.2 °F 74% 30.04 in 10.0 mi NE 16.1 mph - N/A   Overcast
4:55 AM 19.4 °F 5.5 °F 12.2 °F 74% 30.07 in 9.0 mi ENE 15.0 mph - N/A   Overcast
5:15 AM 17.6 °F 2.2 °F 12.2 °F 79% 30.07 in 7.0 mi NE 17.3 mph - N/A   Overcast
5:35 AM 17.6 °F 2.7 °F 10.4 °F 73% 30.09 in 10.0 mi NE 16.1 mph - N/A   Overcast
5:55 AM 17.6 °F 2.7 °F 10.4 °F 73% 30.10 in 10.0 mi NE 16.1 mph - N/A   Overcast
6:15 AM 15.8 °F 1.4 °F 10.4 °F 79% 30.09 in 10.0 mi NE 13.8 mph - N/A   Overcast
6:35 AM 15.8 °F 2.1 °F 10.4 °F 79% 30.09 in 10.0 mi ENE 12.7 mph - N/A   Overcast
6:55 AM 15.8 °F 3.4 °F 10.4 °F 79% 30.13 in 10.0 mi North 10.4 mph - N/A   Overcast
7:15 AM 15.8 °F 2.7 °F 10.4 °F 79% 30.11 in 1.5 mi ENE 11.5 mph - 0.01 in   Overcast
7:35 AM 17.6 °F 2.7 °F 12.2 °F 79% 30.06 in 1.8 mi East 16.1 mph - 0.02 in   Overcast
7:55 AM 17.6 °F 1.7 °F 14.0 °F 86% 30.13 in 1.5 mi North 18.4 mph 23.0 mph 0.03 in   Overcast
8:15 AM 17.6 °F 3.2 °F 12.2 °F 79% 30.13 in 2.5 mi NNE 15.0 mph 23.0 mph N/A   Overcast
8:35 AM 17.6 °F 2.2 °F 12.2 °F 79% 30.12 in 1.8 mi ENE 17.3 mph - 0.03 in   Overcast
8:55 AM 17.6 °F 1.7 °F 12.2 °F 79% 30.09 in 2.5 mi ESE 18.4 mph 23.0 mph 0.05 in   Overcast
9:15 AM 17.6 °F -1.0 °F 12.2 °F 79% 30.07 in 6.0 mi ESE 26.5 mph 29.9 mph N/A   Overcast
9:35 AM 17.6 °F 3.2 °F 10.4 °F 73% 30.11 in 9.0 mi NE 15.0 mph 29.9 mph N/A   Overcast
9:55 AM 17.6 °F 2.2 °F 12.2 °F 79% 30.10 in 2.5 mi NE 17.3 mph - N/A   Overcast
10:15 AM 17.6 °F 1.7 °F 12.2 °F 79% 30.12 in 5.0 mi NNE 18.4 mph - N/A   Overcast
10:35 AM 15.8 °F -0.6 °F 10.4 °F 79% 30.12 in 10.0 mi NNE 18.4 mph - N/A   Overcast
10:55 AM 15.8 °F 0.3 °F 8.6 °F 73% 30.13 in 10.0 mi NNE 16.1 mph - N/A   Overcast
11:15 AM 15.8 °F -0.2 °F 8.6 °F 73% 30.13 in 10.0 mi NNE 17.3 mph - N/A   Overcast
11:35 AM 15.8 °F -0.6 °F 10.4 °F 79% 30.13 in 10.0 mi NNE 18.4 mph - N/A   Overcast
11:55 AM 15.8 °F -1.1 °F 8.6 °F 73% 30.14 in 10.0 mi NNE 19.6 mph - N/A   Overcast
12:15 PM 15.8 °F -1.1 °F 6.8 °F 68% 30.13 in 10.0 mi North 19.6 mph - N/A   Overcast
12:35 PM 15.8 °F -0.2 °F 8.6 °F 73% 30.12 in 10.0 mi NNE 17.3 mph - N/A   Overcast
12:55 PM 15.8 °F -0.2 °F 8.6 °F 73% 30.11 in 10.0 mi NNE 17.3 mph - N/A   Overcast
1:15 PM 15.8 °F -0.2 °F 6.8 °F 68% 30.11 in 10.0 mi NNE 17.3 mph - N/A   Overcast
1:35 PM 15.8 °F -0.2 °F 6.8 °F 68% 30.12 in 10.0 mi NNE 17.3 mph - N/A   Overcast
1:55 PM 15.8 °F 0.3 °F 8.6 °F 73% 30.12 in 10.0 mi NNE 16.1 mph 19.6 mph N/A   Overcast
2:15 PM 15.8 °F 0.3 °F 8.6 °F 73% 30.13 in 10.0 mi NNE 16.1 mph - N/A   Overcast
2:35 PM 15.8 °F -0.2 °F 8.6 °F 73% 30.14 in 10.0 mi NNE 17.3 mph - N/A   Overcast
2:55 PM 15.8 °F -1.1 °F 8.6 °F 73% 30.14 in 7.0 mi NNE 19.6 mph 24.2 mph N/A   Overcast
3:15 PM 14.0 °F -2.5 °F 6.8 °F 73% 30.15 in 5.0 mi NNE 17.3 mph - N/A   Overcast
3:35 PM 14.0 °F -2.0 °F 8.6 °F 79% 30.15 in 5.0 mi NNE 16.1 mph - N/A   Overcast
3:55 PM 14.0 °F -2.0 °F 8.6 °F 79% 30.16 in 8.0 mi NNE 16.1 mph - N/A   Overcast
4:15 PM 14.0 °F -3.4 °F 6.8 °F 73% 30.17 in 10.0 mi NNE 19.6 mph - N/A   Overcast
4:35 PM 12.2 °F -6.3 °F 6.8 °F 79% 30.17 in 8.0 mi North 20.7 mph - N/A   Overcast
4:55 PM 12.2 °F -4.3 °F 6.8 °F 79% 30.19 in 5.0 mi North 16.1 mph 20.7 mph N/A   Overcast
5:15 PM 12.2 °F -5.3 °F 5.0 °F 73% 30.19 in 7.0 mi NNE 18.4 mph - N/A   Overcast
5:35 PM 12.2 °F -4.8 °F 3.2 °F 67% 30.20 in 10.0 mi NNE 17.3 mph - N/A   Overcast
5:55 PM 12.2 °F -2.5 °F 6.8 °F 79% 30.20 in 10.0 mi North 12.7 mph - N/A   Overcast
6:15 PM 12.2 °F -1.8 °F 5.0 °F 73% 30.19 in 10.0 mi NNE 11.5 mph - N/A   Overcast
6:35 PM 12.2 °F -1.0 °F 5.0 °F 73% 30.20 in 10.0 mi North 10.4 mph - N/A   Overcast
6:55 PM 12.2 °F -2.5 °F 5.0 °F 73% 30.21 in 10.0 mi NNE 12.7 mph - N/A   Overcast
7:15 PM 12.2 °F -4.8 °F 6.8 °F 79% 30.24 in 10.0 mi North 17.3 mph - N/A   Overcast
7:35 PM 12.2 °F -3.7 °F 5.0 °F 73% 30.24 in 10.0 mi North 15.0 mph - N/A   Overcast
7:55 PM 12.2 °F -2.5 °F 5.0 °F 73% 30.25 in 10.0 mi North 12.7 mph - N/A   Overcast
8:15 PM 12.2 °F -3.1 °F 5.0 °F 73% 30.24 in 10.0 mi NNE 13.8 mph - N/A   Overcast
8:35 PM 12.2 °F -3.1 °F 5.0 °F 73% 30.26 in 10.0 mi NNE 13.8 mph - N/A   Mostly Cloudy
8:55 PM 12.2 °F -0.2 °F 5.0 °F 73% 30.28 in 10.0 mi NNE 9.2 mph - N/A   Overcast
9:15 PM 12.2 °F -0.2 °F 6.8 °F 79% 30.27 in 10.0 mi NNE 9.2 mph - N/A   Overcast
9:35 PM 10.4 °F -3.3 °F 3.2 °F 73% 30.27 in 10.0 mi NNE 10.4 mph - N/A   Mostly Cloudy
9:55 PM 10.4 °F 0.8 °F 3.2 °F 73% 30.29 in 10.0 mi North 5.8 mph - N/A   Mostly Cloudy
10:15 PM 10.4 °F -2.4 °F 5.0 °F 79% 30.28 in 10.0 mi NNE 9.2 mph - N/A   Partly Cloudy
10:35 PM 10.4 °F 0.8 °F 3.2 °F 73% 30.29 in 10.0 mi NNE 5.8 mph - N/A   Clear
10:55 PM 10.4 °F -3.3 °F 3.2 °F 73% 30.28 in 10.0 mi NNE 10.4 mph - N/A   Clear
11:15 PM 8.6 °F -4.7 °F 1.4 °F 73% 30.29 in 10.0 mi NNE 9.2 mph - N/A   Clear
11:35 PM 8.6 °F - 3.2 °F 79% 30.30 in 10.0 mi Calm Calm - N/A   Clear
11:55 PM 8.6 °F -3.7 °F 1.4 °F 73% 30.30 in 10.0 mi North 8.1 mph - N/A   Clear